GLO2136 SBGL-SBSL

Flight info

Callsign GLO2136
Flight time 2h 53m
Altitude 31000
Route DAKDA Z36 CNF/N0401F250 Z36 DOBNU DCT VAMIL Z63 TNA/N0404F240 Z81 SLI
Aircraft B738/M-SDFGIKLORWXY/LB1

Departure

Time 2026-04-16 15:33
Airport Rio Galeão – Tom Jobim International Airport (SBGL)

Arrival

Time 2026-04-16 18:26
Airport Marechal Cunha Machado International Airport (SBSL)
Time Latitude Longitude Altitude Speed Heading
2026-04-16 15:19 -22.81451 -43.25221 25 ft 0 kts 214°
2026-04-16 15:27 -22.81445 -43.25216 28 ft 4 kts 211°
2026-04-16 15:27 -22.81423 -43.25208 29 ft 4 kts 158°
2026-04-16 15:27 -22.81405 -43.25226 25 ft 3 kts 125°
2026-04-16 15:28 -22.81401 -43.25232 29 ft 0 kts 125°
2026-04-16 15:29 -22.81406 -43.25224 27 ft 5 kts 125°
2026-04-16 15:30 -22.81451 -43.25164 27 ft 13 kts 150°
2026-04-16 15:30 -22.81531 -43.25193 25 ft 13 kts 212°
2026-04-16 15:30 -22.81602 -43.25246 25 ft 12 kts 218°
2026-04-16 15:30 -22.81669 -43.25300 25 ft 12 kts 216°
2026-04-16 15:31 -22.81732 -43.25356 25 ft 11 kts 226°
2026-04-16 15:31 -22.81749 -43.25403 25 ft 7 kts 267°
2026-04-16 15:31 -22.81746 -43.25455 29 ft 9 kts 276°
2026-04-16 15:31 -22.81739 -43.25537 28 ft 11 kts 268°
2026-04-16 15:32 -22.81791 -43.25539 29 ft 11 kts 126°
2026-04-16 15:32 -22.81951 -43.25300 28 ft 75 kts 126°
2026-04-16 15:32 -22.82389 -43.24637 29 ft 139 kts 126°
2026-04-16 15:32 -22.83018 -43.23602 212 ft 176 kts 121°
2026-04-16 15:33 -22.83663 -43.22470 946 ft 180 kts 114°
2026-04-16 15:33 -22.83839 -43.21167 1695 ft 174 kts 70°
2026-04-16 15:33 -22.83261 -43.19954 2210 ft 194 kts 59°
2026-04-16 15:33 -22.82549 -43.18590 2453 ft 220 kts 61°
2026-04-16 15:34 -22.81782 -43.17068 2766 ft 237 kts 62°
2026-04-16 15:34 -22.80998 -43.15462 3303 ft 247 kts 63°
2026-04-16 15:34 -22.80177 -43.13733 3682 ft 266 kts 64°
2026-04-16 15:34 -22.79330 -43.11919 4433 ft 271 kts 64°
2026-04-16 15:35 -22.78485 -43.10083 5284 ft 273 kts 64°
2026-04-16 15:35 -22.77647 -43.08247 6086 ft 277 kts 64°
2026-04-16 15:35 -22.76791 -43.06363 6880 ft 280 kts 64°
2026-04-16 15:35 -22.75926 -43.04456 7628 ft 284 kts 64°
2026-04-16 15:36 -22.75035 -43.02521 8350 ft 289 kts 60°
2026-04-16 15:36 -22.73668 -43.00924 9048 ft 293 kts 31°
2026-04-16 15:36 -22.71747 -43.00199 9764 ft 296 kts
2026-04-16 15:36 -22.69705 -43.00472 10359 ft 303 kts 340°
2026-04-16 15:37 -22.67620 -43.01083 10505 ft 327 kts 357°
2026-04-16 15:37 -22.65296 -43.00769 10713 ft 347 kts 13°
2026-04-16 15:37 -22.62912 -43.00089 11100 ft 359 kts 15°
2026-04-16 15:37 -22.60475 -42.99372 11703 ft 365 kts 14°
2026-04-16 15:38 -22.58010 -42.98677 12336 ft 368 kts 14°
2026-04-16 15:38 -22.55510 -42.98006 12984 ft 372 kts 13°
2026-04-16 15:38 -22.52974 -42.97352 13584 ft 376 kts 13°
2026-04-16 15:38 -22.50414 -42.96708 14155 ft 380 kts 12°
2026-04-16 15:39 -22.47828 -42.96065 14720 ft 382 kts 12°
2026-04-16 15:39 -22.45252 -42.95428 15255 ft 386 kts 12°
2026-04-16 15:39 -22.42619 -42.94777 15783 ft 390 kts 12°
2026-04-16 15:39 -22.39953 -42.94118 16308 ft 394 kts 12°
2026-04-16 15:40 -22.37260 -42.93453 16800 ft 398 kts 12°
2026-04-16 15:40 -22.34546 -42.92782 17320 ft 401 kts 12°
2026-04-16 15:40 -22.31785 -42.92321 17789 ft 402 kts 358°
2026-04-16 15:40 -22.28999 -42.92655 18010 ft 405 kts 349°
2026-04-16 15:41 -22.26220 -42.93165 18004 ft 402 kts 348°
2026-04-16 15:41 -22.23466 -42.93681 18033 ft 403 kts 348°
2026-04-16 15:41 -22.20730 -42.94165 18037 ft 404 kts 349°
2026-04-16 15:41 -22.17951 -42.94632 18021 ft 403 kts 349°
2026-04-16 15:42 -22.15174 -42.95088 18041 ft 404 kts 349°
2026-04-16 15:42 -22.12369 -42.95549 18311 ft 410 kts 350°
2026-04-16 15:42 -22.09548 -42.96014 18971 ft 406 kts 349°
2026-04-16 15:42 -22.06785 -42.96468 19903 ft 396 kts 349°
2026-04-16 15:43 -22.04058 -42.96917 20549 ft 396 kts 349°
2026-04-16 15:43 -22.01318 -42.97371 20957 ft 401 kts 349°
2026-04-16 15:43 -21.98571 -42.97825 21352 ft 405 kts 349°
2026-04-16 15:43 -21.95772 -42.98288 21771 ft 408 kts 349°
2026-04-16 15:44 -21.92952 -42.98754 22200 ft 411 kts 349°
2026-04-16 15:44 -21.90112 -42.99222 22608 ft 414 kts 349°
2026-04-16 15:44 -21.87248 -42.99694 22999 ft 417 kts 349°
2026-04-16 15:44 -21.84409 -43.00162 23404 ft 420 kts 349°
2026-04-16 15:45 -21.81470 -43.00646 23787 ft 423 kts 349°
2026-04-16 15:45 -21.78550 -43.01127 24163 ft 426 kts 349°
2026-04-16 15:45 -21.75607 -43.01611 24532 ft 428 kts 349°
2026-04-16 15:45 -21.72694 -43.02090 24920 ft 430 kts 349°
2026-04-16 15:46 -21.69731 -43.02577 25315 ft 431 kts 349°
2026-04-16 15:46 -21.66757 -43.03065 25682 ft 433 kts 348°
2026-04-16 15:46 -21.63770 -43.03556 26029 ft 435 kts 348°
2026-04-16 15:46 -21.60774 -43.04048 26375 ft 437 kts 348°
2026-04-16 15:47 -21.57766 -43.04542 26722 ft 438 kts 348°
2026-04-16 15:47 -21.54746 -43.05037 27063 ft 440 kts 348°
2026-04-16 15:47 -21.51704 -43.05536 27430 ft 441 kts 348°
2026-04-16 15:47 -21.48673 -43.06033 27752 ft 442 kts 348°
2026-04-16 15:48 -21.45622 -43.06533 28044 ft 444 kts 348°
2026-04-16 15:48 -21.42561 -43.07034 28342 ft 446 kts 348°
2026-04-16 15:48 -21.39483 -43.07538 28643 ft 447 kts 348°
2026-04-16 15:48 -21.36400 -43.08043 28940 ft 449 kts 348°
2026-04-16 15:49 -21.33340 -43.08543 29218 ft 450 kts 348°
2026-04-16 15:49 -21.30236 -43.09051 29509 ft 451 kts 348°
2026-04-16 15:49 -21.27115 -43.09560 29788 ft 453 kts 348°
2026-04-16 15:49 -21.23989 -43.10068 30049 ft 454 kts 348°
2026-04-16 15:50 -21.20861 -43.10574 30302 ft 456 kts 348°
2026-04-16 15:50 -21.17712 -43.11082 30537 ft 457 kts 348°
2026-04-16 15:50 -21.14557 -43.11591 30767 ft 459 kts 348°
2026-04-16 15:50 -21.11386 -43.12102 31007 ft 461 kts 348°
2026-04-16 15:51 -21.08210 -43.12615 31145 ft 462 kts 348°
2026-04-16 15:51 -21.01951 -43.13622 31138 ft 452 kts 348°
2026-04-16 15:52 -20.95748 -43.14623 31138 ft 450 kts 348°
2026-04-16 15:52 -20.89551 -43.15623 31148 ft 450 kts 348°
2026-04-16 15:53 -20.84398 -43.16453 31135 ft 450 kts 348°
2026-04-16 15:53 -20.78208 -43.17474 31143 ft 450 kts 347°
2026-04-16 15:54 -20.72023 -43.18610 31132 ft 450 kts 347°
2026-04-16 15:54 -20.65885 -43.19754 31135 ft 451 kts 347°
2026-04-16 15:55 -20.59696 -43.20892 31120 ft 452 kts 347°
2026-04-16 15:55 -20.53489 -43.22025 31120 ft 452 kts 347°
2026-04-16 15:56 -20.47295 -43.23153 31108 ft 451 kts 347°
2026-04-16 15:56 -20.41110 -43.24279 31112 ft 451 kts 347°
2026-04-16 15:57 -20.34927 -43.25404 31098 ft 450 kts 347°
2026-04-16 15:57 -20.28755 -43.26527 31100 ft 449 kts 347°
2026-04-16 15:58 -20.22582 -43.27649 31098 ft 449 kts 347°
2026-04-16 15:58 -20.16429 -43.28756 31094 ft 448 kts 347°
2026-04-16 15:59 -20.07239 -43.30410 31096 ft 448 kts 347°
2026-04-16 15:59 -20.01102 -43.31579 31093 ft 448 kts 347°
2026-04-16 16:00 -19.94971 -43.32741 31092 ft 448 kts 347°
2026-04-16 16:00 -19.88862 -43.33889 31100 ft 448 kts 347°
2026-04-16 16:01 -19.82707 -43.35041 31097 ft 449 kts 347°
2026-04-16 16:01 -19.76535 -43.36197 31091 ft 450 kts 347°
2026-04-16 16:02 -19.70360 -43.37352 31091 ft 451 kts 347°
2026-04-16 16:02 -19.64170 -43.38510 31096 ft 451 kts 347°
2026-04-16 16:03 -19.57977 -43.39671 31085 ft 451 kts 347°
2026-04-16 16:03 -19.51801 -43.40828 31089 ft 450 kts 347°
2026-04-16 16:04 -19.45669 -43.41976 31080 ft 450 kts 347°
2026-04-16 16:04 -19.39491 -43.43132 31081 ft 450 kts 347°
2026-04-16 16:05 -19.33327 -43.44283 31082 ft 449 kts 347°
2026-04-16 16:05 -19.27170 -43.45432 31079 ft 449 kts 347°
2026-04-16 16:06 -19.21026 -43.46577 31081 ft 448 kts 347°
2026-04-16 16:06 -19.14881 -43.47721 31070 ft 448 kts 347°
2026-04-16 16:07 -19.08737 -43.48864 31078 ft 449 kts 347°
2026-04-16 16:07 -19.02608 -43.50004 31067 ft 449 kts 347°
2026-04-16 16:08 -18.96438 -43.51151 31081 ft 450 kts 347°
2026-04-16 16:08 -18.90272 -43.52297 31069 ft 450 kts 347°
2026-04-16 16:09 -18.84097 -43.53442 31075 ft 450 kts 347°
2026-04-16 16:09 -18.77911 -43.54590 31073 ft 451 kts 348°
2026-04-16 16:10 -18.71715 -43.55739 31058 ft 452 kts 348°
2026-04-16 16:10 -18.65517 -43.56887 31064 ft 452 kts 347°
2026-04-16 16:11 -18.59345 -43.58030 31050 ft 453 kts 347°
2026-04-16 16:11 -18.53132 -43.59180 31044 ft 453 kts 348°
2026-04-16 16:12 -18.46910 -43.60330 31045 ft 453 kts 348°
2026-04-16 16:12 -18.40685 -43.61475 31050 ft 453 kts 348°
2026-04-16 16:13 -18.34462 -43.62618 31039 ft 454 kts 348°
2026-04-16 16:13 -18.28249 -43.63760 31045 ft 453 kts 348°
2026-04-16 16:14 -18.22064 -43.64896 31043 ft 453 kts 348°
2026-04-16 16:14 -18.15841 -43.66038 31046 ft 453 kts 348°
2026-04-16 16:15 -18.09633 -43.67172 31044 ft 453 kts 348°
2026-04-16 16:15 -18.03398 -43.68129 31047 ft 454 kts 350°
2026-04-16 16:16 -17.97139 -43.69008 31042 ft 454 kts 350°
2026-04-16 16:16 -17.90907 -43.69899 31045 ft 454 kts 350°
2026-04-16 16:17 -17.84604 -43.70819 31032 ft 454 kts 350°
2026-04-16 16:17 -17.78334 -43.71740 31026 ft 454 kts 350°
2026-04-16 16:18 -17.72058 -43.72662 31026 ft 454 kts 350°
2026-04-16 16:18 -17.65794 -43.73580 31031 ft 454 kts 350°
2026-04-16 16:19 -17.59556 -43.74494 31026 ft 454 kts 350°
2026-04-16 16:19 -17.53286 -43.75412 31026 ft 454 kts 350°
2026-04-16 16:20 -17.47034 -43.76326 31028 ft 454 kts 350°
2026-04-16 16:20 -17.40773 -43.77241 31016 ft 454 kts 350°
2026-04-16 16:21 -17.34521 -43.78155 31021 ft 453 kts 350°
2026-04-16 16:21 -17.28264 -43.79068 31016 ft 453 kts 350°
2026-04-16 16:22 -17.22055 -43.79974 31018 ft 453 kts 350°
2026-04-16 16:22 -17.15815 -43.80884 31022 ft 452 kts 350°
2026-04-16 16:23 -17.09573 -43.81793 31016 ft 452 kts 350°
2026-04-16 16:23 -17.03338 -43.82701 31017 ft 452 kts 350°
2026-04-16 16:24 -16.97106 -43.83608 31019 ft 452 kts 350°
2026-04-16 16:24 -16.90910 -43.84508 31018 ft 452 kts 351°
2026-04-16 16:25 -16.84688 -43.85410 31018 ft 451 kts 351°
2026-04-16 16:25 -16.78456 -43.86312 31017 ft 452 kts 351°
2026-04-16 16:26 -16.72229 -43.87214 31018 ft 452 kts 351°
2026-04-16 16:26 -16.65999 -43.88116 31018 ft 452 kts 351°
2026-04-16 16:27 -16.59810 -43.89011 31019 ft 452 kts 351°
2026-04-16 16:27 -16.53571 -43.89913 31020 ft 452 kts 351°
2026-04-16 16:28 -16.47337 -43.90814 31018 ft 452 kts 351°
2026-04-16 16:28 -16.41103 -43.91715 31020 ft 452 kts 351°
2026-04-16 16:29 -16.34865 -43.92614 31017 ft 452 kts 351°
2026-04-16 16:29 -16.28626 -43.93514 31021 ft 452 kts 351°
2026-04-16 16:30 -16.22430 -43.94407 31015 ft 452 kts 351°
2026-04-16 16:30 -16.16192 -43.95306 31029 ft 452 kts 351°
2026-04-16 16:31 -16.09948 -43.96204 31028 ft 453 kts 351°
2026-04-16 16:31 -16.03711 -43.97101 31027 ft 453 kts 351°
2026-04-16 16:32 -15.97463 -43.97999 31029 ft 452 kts 351°
2026-04-16 16:32 -15.91219 -43.98896 31028 ft 452 kts 351°
2026-04-16 16:33 -15.84985 -43.99791 31023 ft 452 kts 351°
2026-04-16 16:33 -15.78752 -44.00686 31017 ft 452 kts 351°
2026-04-16 16:34 -15.72558 -44.01574 31016 ft 452 kts 351°
2026-04-16 16:34 -15.67334 -44.02323 31020 ft 452 kts 351°
2026-04-16 16:35 -15.61143 -44.03195 31019 ft 452 kts 351°
2026-04-16 16:35 -15.54908 -44.04064 31019 ft 452 kts 351°
2026-04-16 16:36 -15.48675 -44.04935 31020 ft 452 kts 351°
2026-04-16 16:36 -15.42443 -44.05823 31018 ft 452 kts 351°
2026-04-16 16:37 -15.36201 -44.06730 31019 ft 452 kts 351°
2026-04-16 16:37 -15.29965 -44.07635 31019 ft 452 kts 351°
2026-04-16 16:38 -15.23765 -44.08531 31018 ft 453 kts 351°
2026-04-16 16:38 -15.17525 -44.09432 31016 ft 453 kts 351°
2026-04-16 16:39 -15.11255 -44.10218 31015 ft 454 kts 356°
2026-04-16 16:39 -15.04940 -44.10322 31019 ft 454 kts 359°
2026-04-16 16:40 -14.98611 -44.10309 31018 ft 455 kts 359°
2026-04-16 16:40 -14.92277 -44.10338 31015 ft 455 kts 359°
2026-04-16 16:41 -14.85933 -44.10403 31021 ft 455 kts 358°
2026-04-16 16:41 -14.79634 -44.10477 31020 ft 455 kts 358°
2026-04-16 16:42 -14.73292 -44.10552 31016 ft 456 kts 358°
2026-04-16 16:42 -14.66950 -44.10624 31021 ft 455 kts 359°
2026-04-16 16:43 -14.60631 -44.10696 31018 ft 455 kts 359°
2026-04-16 16:43 -14.54282 -44.10768 31018 ft 455 kts 359°
2026-04-16 16:44 -14.48011 -44.10840 31018 ft 455 kts 359°
2026-04-16 16:44 -14.41679 -44.10912 31020 ft 455 kts 359°
2026-04-16 16:45 -14.35377 -44.10983 31019 ft 455 kts 359°
2026-04-16 16:45 -14.29042 -44.11055 31019 ft 455 kts 359°
2026-04-16 16:46 -14.22704 -44.11128 31020 ft 455 kts 359°
2026-04-16 16:46 -14.16414 -44.11207 31018 ft 455 kts 359°
2026-04-16 16:47 -14.10073 -44.11288 31012 ft 455 kts 359°
2026-04-16 16:47 -14.03738 -44.11368 31009 ft 455 kts 359°
2026-04-16 16:48 -13.97402 -44.11448 31013 ft 455 kts 359°
2026-04-16 16:48 -13.91070 -44.11527 31010 ft 455 kts 359°
2026-04-16 16:49 -13.84719 -44.11607 31006 ft 456 kts 359°
2026-04-16 16:49 -13.78377 -44.11686 31007 ft 455 kts 359°
2026-04-16 16:50 -13.72045 -44.11765 31011 ft 455 kts 359°
2026-04-16 16:50 -13.65714 -44.11844 31008 ft 455 kts 359°
2026-04-16 16:51 -13.59417 -44.11922 31012 ft 455 kts 359°
2026-04-16 16:51 -13.53083 -44.12002 31011 ft 455 kts 359°
2026-04-16 16:52 -13.46736 -44.12081 31007 ft 455 kts 359°
2026-04-16 16:52 -13.40397 -44.12160 31015 ft 455 kts 359°
2026-04-16 16:53 -13.34047 -44.12240 31008 ft 456 kts 359°
2026-04-16 16:53 -13.27739 -44.12319 31010 ft 456 kts 359°
2026-04-16 16:54 -13.21382 -44.12407 31003 ft 456 kts 359°
2026-04-16 16:54 -13.15028 -44.12498 31009 ft 457 kts 359°
2026-04-16 16:55 -13.08704 -44.12586 31001 ft 457 kts 359°
2026-04-16 16:55 -13.02329 -44.12675 31003 ft 457 kts 359°
2026-04-16 16:56 -12.95955 -44.12764 31000 ft 458 kts 359°
2026-04-16 16:56 -12.89590 -44.12831 30998 ft 458 kts 360°
2026-04-16 16:57 -12.80020 -44.12847 30999 ft 457 kts 360°
2026-04-16 16:58 -12.73647 -44.12864 31000 ft 457 kts 360°
2026-04-16 16:58 -12.67281 -44.12885 31004 ft 457 kts 360°
2026-04-16 16:59 -12.60923 -44.12912 31002 ft 457 kts 359°
2026-04-16 16:59 -12.54554 -44.12996 31004 ft 457 kts 359°
2026-04-16 17:00 -12.48225 -44.13092 30997 ft 458 kts 359°
2026-04-16 17:00 -12.41848 -44.13182 30987 ft 458 kts 359°
2026-04-16 17:01 -12.35454 -44.13268 30983 ft 459 kts 359°
2026-04-16 17:01 -12.29060 -44.13353 30980 ft 459 kts 359°
2026-04-16 17:02 -12.22676 -44.13439 30983 ft 459 kts 359°
2026-04-16 17:02 -12.16288 -44.13523 30968 ft 459 kts 360°
2026-04-16 17:03 -12.09945 -44.13592 30975 ft 459 kts 360°
2026-04-16 17:03 -12.03556 -44.13656 30979 ft 459 kts 360°
2026-04-16 17:04 -11.97176 -44.13723 30976 ft 458 kts 360°
2026-04-16 17:04 -11.90804 -44.13791 30965 ft 458 kts 360°
2026-04-16 17:05 -11.84429 -44.13859 30972 ft 457 kts 360°
2026-04-16 17:05 -11.78061 -44.13927 30970 ft 457 kts 360°
2026-04-16 17:06 -11.71729 -44.13994 30978 ft 457 kts 360°
2026-04-16 17:06 -11.65353 -44.14062 30968 ft 458 kts 360°
2026-04-16 17:07 -11.58963 -44.14130 30971 ft 458 kts 359°
2026-04-16 17:07 -11.52575 -44.14198 30960 ft 459 kts 359°
2026-04-16 17:08 -11.46190 -44.14266 30964 ft 459 kts 359°
2026-04-16 17:08 -11.39845 -44.14333 30962 ft 459 kts 359°
2026-04-16 17:09 -11.33458 -44.14401 30961 ft 459 kts 359°
2026-04-16 17:09 -11.27069 -44.14469 30964 ft 459 kts 359°
2026-04-16 17:10 -11.20672 -44.14537 30963 ft 459 kts 359°
2026-04-16 17:10 -11.14281 -44.14604 30962 ft 459 kts 359°
2026-04-16 17:11 -11.07888 -44.14672 30967 ft 459 kts 359°
2026-04-16 17:11 -11.01533 -44.14739 30963 ft 460 kts 359°
2026-04-16 17:12 -10.95128 -44.14807 30964 ft 460 kts 359°
2026-04-16 17:12 -10.88712 -44.14875 30963 ft 461 kts 359°
2026-04-16 17:13 -10.82300 -44.14945 30962 ft 461 kts 358°
2026-04-16 17:13 -10.75904 -44.15023 30959 ft 462 kts 358°
2026-04-16 17:14 -10.69476 -44.15100 30956 ft 462 kts 358°
2026-04-16 17:14 -10.63043 -44.15177 30946 ft 462 kts 358°
2026-04-16 17:15 -10.56609 -44.15253 30956 ft 462 kts 358°
2026-04-16 17:15 -10.50181 -44.15330 30951 ft 462 kts 358°
2026-04-16 17:16 -10.43757 -44.15409 30956 ft 461 kts 358°
2026-04-16 17:16 -10.37339 -44.15489 30953 ft 461 kts 358°
2026-04-16 17:17 -10.30921 -44.15567 30946 ft 462 kts 358°
2026-04-16 17:17 -10.24488 -44.15647 30926 ft 462 kts 358°
2026-04-16 17:18 -10.18052 -44.15725 30920 ft 462 kts 358°
2026-04-16 17:18 -10.11658 -44.15804 30917 ft 462 kts 358°
2026-04-16 17:19 -10.05226 -44.15883 30916 ft 462 kts 358°
2026-04-16 17:19 -9.98794 -44.15962 30917 ft 462 kts 358°
2026-04-16 17:20 -9.93453 -44.16027 30916 ft 462 kts 358°
2026-04-16 17:20 -9.87028 -44.16106 30918 ft 462 kts 358°
2026-04-16 17:21 -9.80591 -44.16177 30917 ft 462 kts 358°
2026-04-16 17:21 -9.74202 -44.16243 30909 ft 462 kts 358°
2026-04-16 17:22 -9.67777 -44.16311 30905 ft 461 kts 358°
2026-04-16 17:22 -9.61362 -44.16380 30905 ft 461 kts 358°
2026-04-16 17:23 -9.54946 -44.16449 30907 ft 460 kts 358°
2026-04-16 17:23 -9.48547 -44.16517 30910 ft 460 kts 358°
2026-04-16 17:24 -9.42181 -44.16585 30906 ft 460 kts 358°
2026-04-16 17:24 -9.35784 -44.16653 30910 ft 460 kts 358°
2026-04-16 17:25 -9.29384 -44.16721 30894 ft 460 kts 358°
2026-04-16 17:25 -9.22974 -44.16788 30878 ft 460 kts 358°
2026-04-16 17:26 -9.16581 -44.16855 30868 ft 459 kts 358°
2026-04-16 17:26 -9.10191 -44.16922 30869 ft 458 kts 358°
2026-04-16 17:27 -9.03813 -44.16989 30871 ft 458 kts 358°
2026-04-16 17:27 -8.97448 -44.17056 30872 ft 457 kts 358°
2026-04-16 17:28 -8.91085 -44.17124 30873 ft 456 kts 358°
2026-04-16 17:28 -8.84786 -44.17195 30871 ft 456 kts 358°
2026-04-16 17:29 -8.78443 -44.17268 30872 ft 455 kts 358°
2026-04-16 17:29 -8.72102 -44.17340 30866 ft 455 kts 358°
2026-04-16 17:30 -8.65776 -44.17412 30878 ft 454 kts 358°
2026-04-16 17:30 -8.59447 -44.17483 30861 ft 454 kts 358°
2026-04-16 17:31 -8.53126 -44.17555 30871 ft 454 kts 358°
2026-04-16 17:31 -8.46846 -44.17625 30859 ft 454 kts 358°
2026-04-16 17:32 -8.40534 -44.17697 30861 ft 454 kts 358°
2026-04-16 17:32 -8.34224 -44.17768 30862 ft 453 kts 358°
2026-04-16 17:33 -8.27912 -44.17840 30862 ft 453 kts 358°
2026-04-16 17:33 -8.21608 -44.17911 30863 ft 453 kts 358°
2026-04-16 17:34 -8.15307 -44.17982 30860 ft 452 kts 358°
2026-04-16 17:34 -8.09014 -44.18053 30861 ft 452 kts 358°
2026-04-16 17:35 -8.02714 -44.18124 30864 ft 452 kts 358°
2026-04-16 17:35 -7.96421 -44.18195 30858 ft 452 kts 358°
2026-04-16 17:36 -7.90133 -44.18266 30863 ft 452 kts 358°
2026-04-16 17:36 -7.83875 -44.18335 30859 ft 452 kts 358°
2026-04-16 17:37 -7.77581 -44.18398 30855 ft 452 kts 358°
2026-04-16 17:37 -7.71285 -44.18461 30853 ft 452 kts 358°
2026-04-16 17:38 -7.64983 -44.18524 30851 ft 452 kts 358°
2026-04-16 17:38 -7.58701 -44.18588 30851 ft 451 kts 358°
2026-04-16 17:39 -7.52454 -44.18651 30854 ft 451 kts 358°
2026-04-16 17:39 -7.46178 -44.18715 30852 ft 451 kts 358°
2026-04-16 17:40 -7.39900 -44.18779 30852 ft 451 kts 358°
2026-04-16 17:40 -7.33627 -44.18842 30863 ft 450 kts 358°
2026-04-16 17:41 -7.27368 -44.18906 30850 ft 450 kts 358°
2026-04-16 17:41 -7.21110 -44.18969 30857 ft 449 kts 358°
2026-04-16 17:42 -7.14858 -44.19032 30848 ft 449 kts 358°
2026-04-16 17:42 -7.08660 -44.19095 30850 ft 448 kts 358°
2026-04-16 17:43 -7.02416 -44.19158 30838 ft 448 kts 359°
2026-04-16 17:43 -6.96182 -44.19221 30844 ft 447 kts 359°
2026-04-16 17:44 -6.89954 -44.19285 30844 ft 447 kts 359°
2026-04-16 17:44 -6.83737 -44.19348 30841 ft 446 kts 359°
2026-04-16 17:45 -6.77575 -44.19410 30845 ft 446 kts 359°
2026-04-16 17:45 -6.71362 -44.19473 30842 ft 445 kts 359°
2026-04-16 17:46 -6.65160 -44.19536 30841 ft 445 kts 359°
2026-04-16 17:46 -6.58966 -44.19598 30843 ft 445 kts 359°
2026-04-16 17:47 -6.52768 -44.19661 30847 ft 445 kts 359°
2026-04-16 17:47 -6.46585 -44.19724 30840 ft 444 kts 359°
2026-04-16 17:48 -6.40448 -44.19786 30847 ft 444 kts 359°
2026-04-16 17:48 -6.34263 -44.19849 30838 ft 444 kts 359°
2026-04-16 17:49 -6.28088 -44.19911 30842 ft 443 kts 359°
2026-04-16 17:49 -6.21909 -44.19974 30843 ft 443 kts 359°
2026-04-16 17:50 -6.15736 -44.20036 30834 ft 443 kts 359°
2026-04-16 17:50 -6.09603 -44.20098 30837 ft 443 kts 359°
2026-04-16 17:51 -6.03424 -44.20173 30844 ft 443 kts 359°
2026-04-16 17:51 -5.97250 -44.20254 30844 ft 443 kts 359°
2026-04-16 17:52 -5.91065 -44.20331 30843 ft 444 kts 359°
2026-04-16 17:52 -5.84922 -44.20400 30841 ft 444 kts 359°
2026-04-16 17:53 -5.78736 -44.20469 30852 ft 444 kts 359°
2026-04-16 17:53 -5.72556 -44.20538 30850 ft 443 kts 359°
2026-04-16 17:54 -5.66387 -44.20607 30852 ft 443 kts 359°
2026-04-16 17:54 -5.60228 -44.20677 30851 ft 442 kts 359°
2026-04-16 17:55 -5.54112 -44.20746 30854 ft 442 kts 359°
2026-04-16 17:55 -5.47964 -44.20815 30849 ft 442 kts 359°
2026-04-16 17:56 -5.41807 -44.20885 30837 ft 441 kts 359°
2026-04-16 17:56 -5.32594 -44.20989 30832 ft 441 kts 359°
2026-04-16 17:57 -5.26461 -44.21058 30833 ft 440 kts 359°
2026-04-16 17:57 -5.20368 -44.21127 30835 ft 440 kts 359°
2026-04-16 17:58 -5.14241 -44.21196 30833 ft 440 kts 359°
2026-04-16 17:58 -5.08117 -44.21265 30832 ft 440 kts 359°
2026-04-16 17:59 -5.02009 -44.21334 30832 ft 439 kts 359°
2026-04-16 17:59 -4.95901 -44.21403 30832 ft 439 kts 359°
2026-04-16 18:00 -4.89836 -44.21471 30835 ft 438 kts 359°
2026-04-16 18:00 -4.83734 -44.21540 30833 ft 438 kts 359°
2026-04-16 18:01 -4.77646 -44.21608 30838 ft 437 kts 359°
2026-04-16 18:01 -4.71553 -44.21677 30832 ft 437 kts 359°
2026-04-16 18:02 -4.65475 -44.21746 30832 ft 437 kts 360°
2026-04-16 18:02 -4.59364 -44.21814 30846 ft 444 kts 360°
2026-04-16 18:03 -4.53104 -44.21884 30843 ft 456 kts 359°
2026-04-16 18:03 -4.46668 -44.21957 30305 ft 467 kts 359°
2026-04-16 18:04 -4.43431 -44.21993 29802 ft 462 kts 359°
2026-04-16 18:04 -4.40274 -44.22029 29313 ft 457 kts 359°
2026-04-16 18:04 -4.37108 -44.22065 28800 ft 452 kts 360°
2026-04-16 18:04 -4.33980 -44.22100 28286 ft 447 kts 360°
2026-04-16 18:05 -4.30878 -44.22135 27777 ft 443 kts
2026-04-16 18:05 -4.27808 -44.22170 27271 ft 438 kts
2026-04-16 18:05 -4.24770 -44.22204 26769 ft 434 kts
2026-04-16 18:05 -4.21770 -44.22238 26268 ft 430 kts
2026-04-16 18:06 -4.18786 -44.22271 25771 ft 426 kts
2026-04-16 18:06 -4.15835 -44.22305 25284 ft 422 kts
2026-04-16 18:06 -4.12924 -44.22338 24918 ft 415 kts
2026-04-16 18:06 -4.10089 -44.22370 24444 ft 411 kts
2026-04-16 18:07 -4.07239 -44.22403 23975 ft 407 kts
2026-04-16 18:07 -4.04408 -44.22435 23500 ft 404 kts
2026-04-16 18:07 -4.01611 -44.22467 23023 ft 400 kts
2026-04-16 18:07 -3.98834 -44.22498 22533 ft 398 kts
2026-04-16 18:08 -3.97003 -44.22519 22220 ft 396 kts
2026-04-16 18:08 -3.94254 -44.22550 21747 ft 394 kts
2026-04-16 18:08 -3.91513 -44.22581 21271 ft 391 kts
2026-04-16 18:08 -3.87925 -44.22621 20653 ft 387 kts
2026-04-16 18:09 -3.86106 -44.22642 20339 ft 386 kts
2026-04-16 18:09 -3.83431 -44.22672 19882 ft 383 kts
2026-04-16 18:09 -3.80804 -44.22702 19427 ft 380 kts
2026-04-16 18:09 -3.78167 -44.22732 18974 ft 378 kts
2026-04-16 18:10 -3.75548 -44.22762 18523 ft 375 kts
2026-04-16 18:10 -3.72945 -44.22791 18074 ft 372 kts
2026-04-16 18:10 -3.70359 -44.22820 17628 ft 370 kts
2026-04-16 18:10 -3.67789 -44.22849 17179 ft 368 kts
2026-04-16 18:11 -3.65243 -44.22878 16737 ft 365 kts
2026-04-16 18:11 -3.62710 -44.22907 16293 ft 362 kts
2026-04-16 18:11 -3.60189 -44.22934 15826 ft 361 kts
2026-04-16 18:11 -3.57684 -44.22961 15380 ft 359 kts
2026-04-16 18:12 -3.55225 -44.22987 14948 ft 357 kts
2026-04-16 18:12 -3.52750 -44.23014 14514 ft 354 kts
2026-04-16 18:12 -3.50285 -44.23040 14083 ft 352 kts
2026-04-16 18:12 -3.47844 -44.23066 13659 ft 349 kts
2026-04-16 18:13 -3.45418 -44.23092 13234 ft 347 kts
2026-04-16 18:13 -3.43016 -44.23118 12811 ft 344 kts
2026-04-16 18:13 -3.40623 -44.23143 12394 ft 342 kts
2026-04-16 18:13 -3.38251 -44.23169 11977 ft 340 kts
2026-04-16 18:14 -3.35897 -44.23194 11569 ft 338 kts
2026-04-16 18:14 -3.33552 -44.23219 11142 ft 336 kts
2026-04-16 18:14 -3.31249 -44.23243 10736 ft 334 kts
2026-04-16 18:14 -3.28935 -44.23268 10457 ft 328 kts
2026-04-16 18:15 -3.26693 -44.23293 10302 ft 318 kts
2026-04-16 18:15 -3.24500 -44.23316 10134 ft 310 kts
2026-04-16 18:15 -3.22372 -44.23338 9994 ft 301 kts
2026-04-16 18:15 -3.20310 -44.23359 9861 ft 292 kts
2026-04-16 18:16 -3.18292 -44.23379 9625 ft 288 kts
2026-04-16 18:16 -3.16294 -44.23398 9337 ft 286 kts
2026-04-16 18:16 -3.14308 -44.23417 9052 ft 284 kts
2026-04-16 18:16 -3.12356 -44.23437 8762 ft 284 kts
2026-04-16 18:17 -3.10387 -44.23456 8464 ft 283 kts
2026-04-16 18:17 -3.08421 -44.23476 8177 ft 282 kts
2026-04-16 18:17 -3.06456 -44.23496 7883 ft 283 kts
2026-04-16 18:17 -3.04485 -44.23620 7575 ft 284 kts 355°
2026-04-16 18:18 -3.02531 -44.23877 7282 ft 283 kts 353°
2026-04-16 18:18 -3.00587 -44.24159 6981 ft 282 kts 353°
2026-04-16 18:18 -2.98644 -44.24439 6689 ft 281 kts 354°
2026-04-16 18:18 -2.96712 -44.24711 6394 ft 279 kts 354°
2026-04-16 18:19 -2.94789 -44.24975 6105 ft 278 kts 354°
2026-04-16 18:19 -2.92879 -44.25234 5818 ft 276 kts 354°
2026-04-16 18:19 -2.90980 -44.25489 5534 ft 275 kts 354°
2026-04-16 18:19 -2.89082 -44.25743 5238 ft 274 kts 354°
2026-04-16 18:20 -2.87239 -44.25988 4961 ft 273 kts 354°
2026-04-16 18:20 -2.85358 -44.26237 4674 ft 271 kts 354°
2026-04-16 18:20 -2.83492 -44.26485 4396 ft 270 kts 354°
2026-04-16 18:20 -2.81630 -44.26732 4128 ft 269 kts 354°
2026-04-16 18:21 -2.79841 -44.27030 4021 ft 259 kts 343°
2026-04-16 18:21 -2.78337 -44.27942 3788 ft 252 kts 317°
2026-04-16 18:21 -2.77186 -44.29235 3559 ft 245 kts 310°
2026-04-16 18:21 -2.76151 -44.30538 3424 ft 233 kts 309°
2026-04-16 18:22 -2.75170 -44.31771 3346 ft 219 kts 310°
2026-04-16 18:22 -2.74244 -44.32924 3279 ft 209 kts 312°
2026-04-16 18:22 -2.73087 -44.33688 3233 ft 196 kts 353°
2026-04-16 18:22 -2.71817 -44.33467 3125 ft 183 kts 26°
2026-04-16 18:23 -2.70673 -44.32915 2882 ft 182 kts 30°
2026-04-16 18:23 -2.69603 -44.32258 2641 ft 179 kts 33°
2026-04-16 18:23 -2.68600 -44.31546 2408 ft 173 kts 38°
2026-04-16 18:23 -2.67686 -44.30821 2202 ft 162 kts 39°
2026-04-16 18:24 -2.66837 -44.30133 1995 ft 156 kts 39°
2026-04-16 18:24 -2.66001 -44.29455 1776 ft 153 kts 39°
2026-04-16 18:24 -2.65183 -44.28791 1577 ft 151 kts 39°
2026-04-16 18:24 -2.64367 -44.28128 1377 ft 150 kts 39°
2026-04-16 18:25 -2.63554 -44.27468 1176 ft 151 kts 39°
2026-04-16 18:25 -2.62743 -44.26810 989 ft 150 kts 39°
2026-04-16 18:25 -2.61931 -44.26150 780 ft 151 kts 39°
2026-04-16 18:25 -2.61126 -44.25497 584 ft 152 kts 38°
2026-04-16 18:26 -2.60305 -44.24839 372 ft 150 kts 38°
2026-04-16 18:26 -2.59495 -44.24179 165 ft 148 kts 39°
2026-04-16 18:26 -2.58796 -44.23613 162 ft 101 kts 39°
2026-04-16 18:26 -2.58418 -44.23309 162 ft 39 kts 39°
2026-04-16 18:27 -2.58213 -44.23142 159 ft 34 kts 40°
2026-04-16 18:27 -2.58092 -44.23064 159 ft 14 kts 12°
2026-04-16 18:27 -2.58041 -44.23027 159 ft 8 kts 107°
2026-04-16 18:27 -2.58089 -44.23027 159 ft 10 kts 220°
2026-04-16 18:28 -2.58152 -44.23079 159 ft 14 kts 219°
2026-04-16 18:28 -2.58235 -44.23148 159 ft 17 kts 219°
2026-04-16 18:28 -2.58333 -44.23229 160 ft 19 kts 219°
2026-04-16 18:28 -2.58441 -44.23318 162 ft 21 kts 219°
2026-04-16 18:29 -2.58452 -44.23432 162 ft 17 kts 291°
2026-04-16 18:29 -2.58449 -44.23442 162 ft 0 kts 291°